Location: Killam
(52.7910°N, 111.8608°W)
Time: 06:16:20
(UTC+00:00)

METEOR M2 - Pass Details

Date: 21 March 2026
Orbit: 817 x 824 km, 98.5° (Epoch: 14 April)

Event Time Altitude Azimuth Distance (km) Brightness Sun altitude
Rises 12:40:49 0° 12° (NNE) 3,375 ? -7.8°
Reaches altitude 10° 12:43:13 10° 8° (N) 2,438 ? -7.4°
Maximum altitude 12:48:26 52° 293° (WNW) 1,019 ? -6.7°
Drops below altitude 10° 12:53:37 10° 219° (SW) 2,420 ? -5.9°
Sets 12:56:00 0° 214° (SW) 3,348 ? -5.5°
